| time (UTC) | temp F | wind direction | speed MPH | gust MPH | rain 1hr in | rain 24hr in | rain mn in | humidity % | barometer mb |
| 20260505071532 | 84 | 0 | 0.0 | 0.0 | 0.00 | 0.00 | 0.00 | 63 | 1016.0 |
| 20260505070030 | 83 | 0 | 0.0 | 14.0 | 0.00 | 0.00 | 0.00 | 66 | 1016.1 |
| 20260505064529 | 82 | 45 | 5.0 | 14.0 | 0.00 | 0.00 | 0.00 | 66 | 1016.3 |
| 20260505063028 | 83 | 48 | 4.0 | 12.0 | 0.00 | 0.00 | 0.00 | 64 | 1016.4 |
| 20260505061547 | 83 | 47 | 4.0 | 12.0 | 0.00 | 0.00 | 0.00 | 64 | 1016.6 |
| 20260505060028 | 81 | 49 | 6.0 | 13.0 | 0.00 | 0.00 | 0.00 | 65 | 1016.5 |
| 20260505054542 | 80 | 49 | 7.0 | 15.0 | 0.00 | 0.00 | 0.00 | 68 | 1016.5 |
| 20260505053028 | 80 | 49 | 5.0 | 11.0 | 0.00 | 0.00 | 0.00 | 68 | 1016.5 |
| 20260505051528 | 79 | 51 | 3.0 | 9.0 | 0.00 | 0.00 | 0.00 | 69 | 1016.5 |
| 20260505041528 | 77 | 48 | 1.0 | 5.0 | 0.00 | 0.00 | 0.00 | 70 | 1016.4 |
| 20260505040040 | 77 | 48 | 1.0 | 4.0 | 0.00 | 0.00 | 0.00 | 67 | 1016.4 |
| 20260505034537 | 76 | 48 | 3.0 | 7.0 | 0.00 | 0.00 | 0.00 | 67 | 1016.2 |
| 20260505033030 | 75 | 48 | 0.0 | 2.0 | 0.00 | 0.00 | 0.00 | 70 | 1016.1 |
| 20260505031528 | 73 | 48 | 1.0 | 4.0 | 0.00 | 0.00 | 0.00 | 73 | 1016.0 |
| 20260505030030 | 73 | 48 | 1.0 | 9.0 | 0.00 | 0.00 | 0.00 | 73 | 1015.9 |
| 20260505024528 | 73 | 48 | 1.0 | 5.0 | 0.00 | 0.00 | 0.00 | 74 | 1015.8 |
| 20260505023031 | 72 | 48 | 2.0 | 5.0 | 0.00 | 0.00 | 0.00 | 75 | 1015.8 |
| 20260505021533 | 72 | 48 | 0.0 | 2.0 | 0.00 | 0.00 | 0.00 | 75 | 1015.7 |
| 20260505020037 | 72 | 48 | 1.0 | 1.0 | 0.00 | 0.00 | 0.00 | 75 | 1015.6 |
| 20260505014528 | 72 | 48 | 0.0 | 1.0 | 0.00 | 0.00 | 0.00 | 75 | 1015.6 |
| 20260505013031 | 72 | 48 | 0.0 | 1.0 | 0.00 | 0.00 | 0.00 | 73 | 1015.5 |
| 20260505011530 | 72 | 48 | 1.0 | 3.0 | 0.00 | 0.00 | 0.00 | 73 | 1015.4 |
| 20260505010031 | 73 | 48 | 0.0 | 4.0 | 0.00 | 0.00 | 0.00 | 70 | 1015.2 |
| 20260505004528 | 73 | 48 | 2.0 | 8.0 | 0.00 | 0.00 | 0.00 | 69 | 1015.1 |
| 20260505003027 | 72 | 48 | 1.0 | 2.0 | 0.00 | 0.00 | 0.00 | 73 | 1015.3 |
| 20260505001530 | 72 | 0 | 0.0 | 2.0 | 0.00 | 0.00 | 0.00 | 74 | 1015.4 |
| 20260505000043 | 72 | 0 | 0.0 | 1.0 | 0.00 | 0.00 | 0.00 | 74 | 1015.4 |
| 20260504234533 | 72 | 48 | 0.0 | 1.0 | 0.00 | 0.00 | 0.00 | 75 | 1015.4 |
| 20260504233030 | 72 | 0 | 0.0 | 1.0 | 0.00 | 0.00 | 0.00 | 76 | 1015.4 |
| 20260504231528 | 72 | 0 | 0.0 | 1.0 | 0.00 | 0.00 | 0.00 | 77 | 1015.5 |
| 20260504230028 | 72 | 48 | 0.0 | 1.0 | 0.00 | 0.00 | 0.00 | 76 | 1015.5 |
| 20260504224527 | 72 | 0 | 0.0 | 1.0 | 0.00 | 0.00 | 0.00 | 76 | 1015.6 |
| 20260504223028 | 73 | 48 | 0.0 | 1.0 | 0.00 | 0.00 | 0.00 | 76 | 1015.7 |
| 20260504221530 | 72 | 0 | 0.0 | 1.0 | 0.00 | 0.00 | 0.00 | 76 | 1015.8 |
| 20260504220043 | 72 | 0 | 0.0 | 1.0 | 0.00 | 0.00 | 0.00 | 76 | 1015.9 |
| 20260504214535 | 73 | 0 | 0.0 | 1.0 | 0.00 | 0.00 | 0.00 | 76 | 1016.0 |
| 20260504213035 | 73 | 0 | 0.0 | 2.0 | 0.00 | 0.00 | 0.00 | 75 | 1016.1 |
| 20260504211537 | 74 | 0 | 0.0 | 3.0 | 0.00 | 0.00 | 0.00 | 72 | 1016.1 |
| 20260504210029 | 74 | 48 | 3.0 | 8.0 | 0.00 | 0.00 | 0.00 | 71 | 1016.2 |
| 20260504204537 | 74 | 48 | 3.0 | 7.0 | 0.00 | 0.00 | 0.00 | 72 | 1016.3 |
| 20260504203029 | 74 | 48 | 3.0 | 7.0 | 0.00 | 0.00 | 0.00 | 72 | 1016.4 |
| 20260504201529 | 73 | 48 | 0.0 | 2.0 | 0.00 | 0.00 | 0.00 | 76 | 1016.4 |
| 20260504200028 | 73 | 0 | 0.0 | 1.0 | 0.00 | 0.00 | 0.00 | 75 | 1016.5 |
| 20260504194532 | 74 | 0 | 0.0 | 1.0 | 0.00 | 0.00 | 0.00 | 75 | 1016.5 |
| 20260504193031 | 74 | 0 | 0.0 | 0.0 | 0.00 | 0.00 | 0.00 | 75 | 1016.7 |
| 20260504191529 | 74 | 0 | 0.0 | 3.0 | 0.00 | 0.00 | 0.00 | 74 | 1016.7 |
| 20260504190033 | 74 | 48 | 0.0 | 2.0 | 0.00 | 0.00 | 0.00 | 74 | 1016.8 |
| 20260504184529 | 75 | 48 | 2.0 | 7.0 | 0.00 | 0.00 | 0.00 | 72 | 1016.6 |
| 20260504183030 | 75 | 48 | 2.0 | 6.0 | 0.00 | 0.00 | 0.00 | 73 | 1016.6 |
| 20260504181534 | 75 | 48 | 4.0 | 7.0 | 0.00 | 0.00 | 0.00 | 73 | 1016.6 |
| 20260504180028 | 75 | 48 | 4.0 | 6.0 | 0.00 | 0.00 | 0.00 | 73 | 1016.6 |
| 20260504174528 | 75 | 48 | 4.0 | 7.0 | 0.00 | 0.00 | 0.00 | 73 | 1016.5 |
| 20260504173030 | 76 | 48 | 5.0 | 9.0 | 0.00 | 0.00 | 0.00 | 74 | 1016.7 |
| 20260504171529 | 76 | 49 | 4.0 | 7.0 | 0.00 | 0.00 | 0.00 | 74 | 1016.5 |